WB1DX Weather Reports


time (UTC)temp
F
wind
direction
speed
knots
gust
knots
rain 1hr
in
rain 24hr
in
rain mn
in
humidity
%
barometer
mb
20260506201903 58 281 3.5 7.8 0.00 0.00 0.13 92 983.0
20260506201402 58 159 0.9 3.5 0.00 0.00 0.13 92 983.0
20260506200902 58 190 1.7 2.6 0.00 0.00 0.13 92 983.0
20260506200403 58 183 0.9 0.9 0.00 0.00 0.13 91 983.0
20260506195903 58 218 1.7 3.5 0.05 0.00 0.13 91 983.0
20260506195404 58 179 0.9 1.7 0.05 0.00 0.13 92 983.0
20260506194903 58 182 1.7 1.7 0.00 0.00 0.12 91 983.0
20260506194402 58 188 1.7 2.6 0.00 0.00 0.12 91 983.0
20260506193903 58 197 0.9 1.7 0.00 0.00 0.12 91 984.0
20260506193403 58 175 1.7 8.7 0.00 0.00 0.12 90 984.0
20260506192903 58 182 2.6 2.6 0.00 0.00 0.12 91 983.0
20260506192403 59 194 0.9 1.7 0.07 0.00 0.12 91 983.0
20260506191903 59 188 1.7 2.6 0.00 0.00 0.11 90 984.0
20260506191403 59 187 2.6 2.6 0.05 0.00 0.11 90 984.0
20260506190904 59 175 2.6 2.6 0.05 0.00 0.11 91 984.0
20260506190403 59 180 0.9 1.7 0.00 0.00 0.10 90 984.0
20260506185902 59 179 1.7 2.6 0.07 0.00 0.10 90 984.0
20260506185402 59 192 1.7 1.7 0.07 0.00 0.10 90 984.0
20260506184902 59 188 1.7 3.5 0.05 0.00 0.09 90 984.0
20260506184402 59 192 0.0 2.6 0.05 0.00 0.09 90 983.0
20260506183902 59 187 1.7 2.6 0.00 0.00 0.08 90 983.0
20260506183402 59 196 1.7 1.7 0.00 0.00 0.08 90 984.0
20260506182902 60 175 0.9 2.6 0.07 0.00 0.08 90 984.0
20260506182403 60 185 0.9 1.7 0.05 0.00 0.07 89 984.0
20260506181909 60 189 1.7 2.6 0.12 0.00 0.07 89 984.0
20260506181403 60 211 1.7 1.7 0.12 0.00 0.06 89 984.0
20260506180903 60 176 0.9 1.7 0.07 0.00 0.04 88 984.0
20260506180403 60 176 0.9 1.7 0.14 0.00 0.04 86 984.0
20260506175903 61 177 1.7 2.6 0.07 0.00 0.03 85 984.0
20260506175402 61 185 1.7 2.6 0.05 0.00 0.02 83 984.0
20260506174902 61 176 1.7 2.6 0.05 0.00 0.02 83 984.0
20260506174404 62 176 1.7 3.5 0.00 0.00 0.01 82 985.0
20260506173902 62 180 1.7 2.6 0.07 0.00 0.01 80 985.0
20260506173404 63 173 2.6 2.6 0.07 0.00 0.01 78 985.0
20260506172903 64 173 2.6 7.0 0.00 0.00 0.00 75 985.0
20260506172402 66 203 2.6 3.5 0.00 0.00 0.00 70 985.0
20260506171903 67 173 3.5 5.2 0.00 0.00 0.00 64 985.0
20260506171404 68 172 3.5 3.5 0.00 0.00 0.00 61 984.0
20260506170903 68 279 5.2 8.7 0.00 0.00 0.00 59 984.0
20260506170405 68 173 1.7 2.6 0.00 0.00 0.00 59 984.0
20260506165903 68 197 3.5 7.8 0.00 0.00 0.00 58 984.0
20260506165403 69 162 1.7 6.1 0.00 0.00 0.00 58 984.0
20260506164903 69 173 1.7 3.5 0.00 0.00 0.00 58 984.0
20260506164404 69 187 2.6 5.2 0.00 0.00 0.00 57 984.0
20260506163903 69 162 3.5 6.1 0.00 0.00 0.00 57 984.0
20260506163403 69 179 1.7 5.2 0.00 0.00 0.00 57 984.0
20260506162904 69 173 4.3 5.2 0.00 0.00 0.00 57 984.0
20260506162403 69 165 2.6 6.1 0.00 0.00 0.00 56 984.0
20260506161903 69 280 1.7 1.7 0.00 0.00 0.00 57 985.0
20260506161402 69 177 1.7 3.5 0.00 0.00 0.00 56 985.0
20260506160906 69 170 3.5 5.2 0.00 0.00 0.00 55 985.0
20260506160405 70 164 1.7 3.5 0.00 0.00 0.00 55 985.0
20260506155904 69 180 1.7 2.6 0.00 0.00 0.00 55 984.0
20260506155403 69 168 2.6 3.5 0.00 0.00 0.00 54 985.0
20260506154904 69 171 2.6 7.0 0.00 0.00 0.00 55 985.0
20260506154402 70 246 5.2 7.8 0.00 0.00 0.00 54 985.0
20260506153906 70 174 1.7 2.6 0.00 0.00 0.00 55 985.0
20260506153409 69 173 3.5 3.5 0.00 0.00 0.00 56 985.0
20260506152903 69 157 3.5 7.8 0.00 0.00 0.00 56 985.0
20260506152402 69 164 1.7 2.6 0.00 0.00 0.00 58 985.0
20260506151904 68 208 2.6 2.6 0.00 0.00 0.00 58 985.0
20260506151403 68 189 3.5 7.8 0.00 0.00 0.00 58 985.0
20260506150903 68 169 3.5 3.5 0.00 0.00 0.00 59 986.0
20260506150404 68 164 2.6 2.6 0.00 0.00 0.00 60 985.0
20260506145903 68 212 2.6 5.2 0.00 0.00 0.00 59 986.0
20260506145403 68 190 1.7 3.5 0.00 0.00 0.00 60 985.0
20260506144903 68 141 1.7 2.6 0.00 0.00 0.00 60 985.0
20260506144402 68 180 1.7 2.6 0.00 0.00 0.00 60 985.0
20260506143903 68 203 1.7 2.6 0.00 0.00 0.00 61 985.0
20260506143404 68 174 1.7 1.7 0.00 0.00 0.00 62 986.0
20260506142903 68 183 2.6 2.6 0.00 0.00 0.00 61 986.0
20260506142403 67 159 3.5 3.5 0.00 0.00 0.00 62 986.0
20260506141903 68 171 2.6 2.6 0.00 0.00 0.00 62 986.0
20260506141403 68 186 1.7 2.6 0.00 0.00 0.00 62 986.0
20260506140903 67 171 1.7 5.2 0.00 0.00 0.00 63 986.0
20260506140402 67 166 3.5 3.5 0.00 0.00 0.00 63 985.0
20260506135904 66 223 1.7 3.5 0.00 0.00 0.00 64 985.0
20260506135403 66 166 1.7 2.6 0.00 0.00 0.00 64 985.0
20260506134904 66 162 0.9 2.6 0.00 0.00 0.00 65 985.0
20260506134403 66 182 1.7 2.6 0.00 0.00 0.00 64 985.0
20260506133903 67 272 2.6 3.5 0.00 0.00 0.00 64 985.0
20260506133402 66 167 3.5 5.2 0.00 0.00 0.00 65 986.0
20260506132903 66 159 0.9 2.6 0.00 0.00 0.00 65 986.0
20260506132404 66 212 2.6 3.5 0.00 0.00 0.00 66 985.0
20260506131904 65 153 1.7 3.5 0.00 0.00 0.00 67 985.0
20260506131403 65 163 1.7 2.6 0.00 0.00 0.00 68 985.0
20260506130902 65 179 1.7 2.6 0.00 0.00 0.00 68 986.0
20260506130403 65 174 1.7 2.6 0.00 0.00 0.00 68 986.0
20260506125902 65 171 2.6 2.6 0.00 0.00 0.00 68 986.0
20260506125403 64 181 0.9 1.7 0.00 0.00 0.00 69 986.0
20260506124903 64 178 3.5 5.2 0.00 0.00 0.00 69 986.0
20260506124402 63 173 0.9 2.6 0.00 0.00 0.00 72 986.0
20260506123902 63 188 1.7 3.5 0.00 0.00 0.00 72 986.0
20260506123404 63 176 1.7 2.6 0.00 0.00 0.00 71 986.0
20260506122904 63 180 2.6 2.6 0.00 0.00 0.00 72 986.0
20260506122404 63 171 2.6 3.5 0.00 0.00 0.00 71 986.0
20260506121904 63 167 3.5 3.5 0.00 0.00 0.00 71 986.0
20260506121403 63 154 1.7 2.6 0.00 0.00 0.00 73 986.0
20260506120903 62 158 0.9 1.7 0.00 0.00 0.00 74 986.0
20260506120404 62 179 1.7 1.7 0.00 0.00 0.00 75 986.0
20260506115903 62 176 1.7 1.7 0.00 0.00 0.00 74 986.0
20260506115403 62 177 0.9 1.7 0.00 0.00 0.00 74 986.0
20260506114902 61 190 1.7 1.7 0.00 0.00 0.00 75 986.0
20260506114403 61 158 1.7 1.7 0.00 0.00 0.00 75 986.0
20260506113903 61 158 1.7 2.6 0.00 0.00 0.00 76 986.0
20260506113403 60 215 0.9 3.5 0.00 0.00 0.00 77 986.0
20260506112902 60 204 1.7 1.7 0.00 0.00 0.00 78 986.0
20260506112402 59 205 0.9 0.9 0.00 0.00 0.00 79 987.0
20260506111903 59 206 0.9 0.9 0.00 0.00 0.00 80 986.0
20260506111403 59 206 0.0 1.7 0.00 0.00 0.00 80 986.0
20260506110902 59 206 0.9 1.7 0.00 0.00 0.00 80 986.0
20260506110402 59 207 0.9 0.9 0.00 0.00 0.00 80 987.0
20260506105904 59 200 1.7 1.7 0.00 0.00 0.00 80 987.0
20260506105403 58 212 0.9 2.6 0.00 0.00 0.00 80 987.0
20260506104903 58 198 1.7 2.6 0.00 0.00 0.00 80 986.0
20260506104403 58 187 1.7 2.6 0.00 0.00 0.00 80 986.0
20260506103902 58 186 0.9 1.7 0.00 0.00 0.00 80 986.0
20260506103403 58 187 0.9 1.7 0.00 0.00 0.00 81 986.0
20260506102905 58 197 0.9 1.7 0.00 0.00 0.00 81 986.0
20260506102402 58 196 0.9 0.9 0.00 0.00 0.00 81 986.0
20260506101904 58 199 0.9 0.9 0.00 0.00 0.00 81 986.0
20260506101403 58 212 1.7 1.7 0.00 0.00 0.00 81 986.0
20260506100902 58 202 1.7 1.7 0.00 0.00 0.00 81 986.0
20260506100403 58 204 0.9 0.9 0.00 0.00 0.00 80 986.0
20260506095902 58 205 0.9 0.9 0.00 0.00 0.00 80 986.0
20260506095403 58 206 0.0 0.9 0.00 0.00 0.00 80 986.0
20260506094904 58 222 1.7 1.7 0.00 0.00 0.00 80 986.0
20260506094404 58 273 0.9 3.5 0.00 0.00 0.00 80 986.0
20260506093903 58 207 0.9 0.9 0.00 0.00 0.00 79 986.0
20260506093403 58 217 0.9 1.7 0.00 0.00 0.00 79 986.0
20260506092903 58 218 0.9 1.7 0.00 0.00 0.00 79 986.0
20260506092403 58 177 0.9 1.7 0.00 0.00 0.00 79 986.0
20260506091903 58 159 0.9 1.7 0.00 0.00 0.00 79 986.0
20260506091403 58 155 0.9 1.7 0.00 0.00 0.00 79 986.0
20260506090903 58 155 0.9 0.9 0.00 0.00 0.00 78 986.0
20260506090403 58 277 3.5 6.1 0.00 0.00 0.00 78 986.0
20260506085904 58 192 0.9 1.7 0.00 0.00 0.00 78 986.0
20260506085403 58 190 0.9 1.7 0.00 0.00 0.00 78 986.0
20260506084902 58 189 1.7 5.2 0.00 0.00 0.00 78 986.0
20260506084402 58 211 0.9 0.9 0.00 0.00 0.00 78 986.0
20260506083903 58 212 0.0 0.9 0.00 0.00 0.00 78 986.0
20260506083404 58 212 0.9 0.9 0.00 0.00 0.00 78 986.0
20260506082903 58 226 2.6 2.6 0.00 0.00 0.00 78 986.0
20260506082403 58 201 0.9 2.6 0.00 0.00 0.00 77 986.0
20260506081903 58 195 1.7 1.7 0.00 0.00 0.00 77 986.0
20260506081402 58 221 1.7 1.7 0.00 0.00 0.00 77 986.0
20260506080905 58 184 0.0 1.7 0.00 0.00 0.00 77 986.0
20260506080402 58 278 2.6 3.5 0.00 0.00 0.00 77 986.0
20260506073402 58 182 1.7 0.9 0.00 0.00 0.00 77 986.0
20260506072903 58 181 0.9 0.9 0.00 0.00 0.00 77 986.0
20260506072402 58 181 0.9 0.9 0.00 0.00 0.00 77 986.0
20260506071902 58 176 0.0 0.9 0.00 0.00 0.00 76 986.0
20260506071403 59 176 0.0 0.9 0.00 0.00 0.00 75 986.0
20260506070902 59 153 0.0 0.9 0.00 0.00 0.00 75 986.0
20260506070402 59 150 0.9 0.9 0.00 0.00 0.00 75 986.0
20260506062403 60 184 0.9 0.9 0.00 0.00 0.00 72 986.0
20260506061903 60 176 0.9 1.7 0.00 0.00 0.00 71 986.0
20260506061402 60 176 0.9 1.7 0.00 0.00 0.00 70 986.0
20260506060904 60 188 1.7 1.7 0.00 0.00 0.00 70 986.0
20260506060402 60 184 1.7 2.6 0.00 0.00 0.00 70 986.0
20260506051403 61 171 1.7 3.5 0.00 0.00 0.00 66 986.0
20260506050902 61 183 0.9 1.7 0.00 0.00 0.00 65 986.0
20260506050403 62 192 1.7 1.7 0.00 0.00 0.00 64 986.0
20260506044902 62 184 1.7 1.7 0.00 0.00 0.00 64 986.0
20260506044403 62 170 1.7 1.7 0.00 0.00 0.00 63 986.0
20260506043903 62 169 0.9 2.6 0.00 0.00 0.00 63 986.0
20260506043402 62 185 0.9 1.7 0.00 0.00 0.00 63 986.0
20260506042903 62 215 0.9 2.6 0.00 0.00 0.00 63 987.0
20260506042403 61 195 1.7 2.6 0.00 0.00 0.00 63 986.0
20260506041902 62 181 0.9 2.6 0.00 0.00 0.00 63 986.0
20260506041402 61 190 1.7 1.7 0.00 0.00 0.00 63 987.0
20260506040903 62 193 1.7 1.7 0.00 0.00 0.00 63 986.0
20260506040402 61 194 1.7 2.6 0.00 0.00 0.00 63 987.0
20260506035903 62 183 0.9 1.7 0.00 0.00 0.00 62 986.0
20260506035403 62 182 1.7 1.7 0.00 0.00 0.00 62 987.0
20260506034902 62 185 2.6 2.6 0.00 0.00 0.00 62 987.0
20260506034403 61 172 0.9 0.9 0.00 0.00 0.00 63 987.0
20260506033902 61 172 0.9 1.7 0.00 0.00 0.00 63 986.0
20260506033403 61 173 2.6 2.6 0.00 0.00 0.00 63 986.0
20260506032903 61 175 1.7 1.7 0.00 0.00 0.00 64 987.0
20260506032404 61 190 0.9 1.7 0.00 0.00 0.00 64 987.0
20260506031903 61 169 0.9 1.7 0.00 0.00 0.00 63 987.0
20260506031402 61 169 0.9 1.7 0.00 0.00 0.00 63 987.0
20260506030902 61 169 1.7 1.7 0.00 0.00 0.00 63 986.0
20260506030402 61 187 1.7 1.7 0.00 0.00 0.00 63 986.0
20260506025903 61 195 0.9 2.6 0.00 0.00 0.00 62 986.0
20260506025402 61 205 1.7 1.7 0.00 0.00 0.00 62 987.0
20260506024902 61 189 1.7 1.7 0.00 0.00 0.00 62 987.0
20260506024402 61 191 1.7 2.6 0.00 0.00 0.00 62 987.0
20260506023903 61 177 1.7 1.7 0.00 0.00 0.00 62 986.0
20260506023402 61 210 1.7 2.6 0.00 0.00 0.00 62 986.0
20260506022902 61 181 1.7 1.7 0.00 0.00 0.00 62 987.0
20260506022403 61 182 0.9 1.7 0.00 0.00 0.00 61 987.0
20260506021903 62 183 1.7 2.6 0.00 0.00 0.00 61 987.0
20260506021402 62 185 0.9 1.7 0.00 0.00 0.00 60 987.0
20260506020902 62 175 1.7 2.6 0.00 0.00 0.00 60 986.0
20260506020403 62 172 2.6 2.6 0.00 0.00 0.00 59 987.0
20260506015902 63 177 2.6 2.6 0.00 0.00 0.00 58 987.0
20260506015402 63 182 0.9 1.7 0.00 0.00 0.00 58 987.0
20260506014902 63 241 0.9 3.5 0.00 0.00 0.00 58 986.0
20260506014403 64 182 0.9 3.5 0.00 0.00 0.00 57 986.0
20260506013903 64 188 1.7 5.2 0.00 0.00 0.00 56 986.0
20260506013403 64 171 0.9 2.6 0.00 0.00 0.00 56 986.0
20260506012903 64 190 2.6 3.5 0.00 0.00 0.00 55 986.0
20260506012403 64 194 1.7 1.7 0.00 0.00 0.00 55 986.0
20260506011902 64 187 1.7 1.7 0.00 0.00 0.00 56 986.0
20260506011403 64 180 0.9 2.6 0.00 0.00 0.00 56 986.0
20260506010903 65 161 0.0 2.6 0.00 0.00 0.00 56 986.0
20260506010403 65 190 1.7 1.7 0.00 0.00 0.00 55 986.0
20260506005902 65 177 0.9 1.7 0.00 0.00 0.00 55 986.0
20260506005402 65 175 0.9 0.9 0.00 0.00 0.00 55 986.0
20260506004902 66 175 1.7 1.7 0.00 0.00 0.00 54 986.0
20260506004402 66 178 1.7 2.6 0.00 0.00 0.00 54 986.0
20260506003903 66 178 0.9 3.5 0.00 0.00 0.00 53 986.0
20260506003403 66 173 0.0 1.7 0.00 0.00 0.00 53 986.0
20260506002903 66 172 0.9 2.6 0.00 0.00 0.00 52 986.0
20260506002403 66 166 0.0 5.2 0.00 0.00 0.00 52 985.0
20260506001902 67 182 1.7 1.7 0.00 0.00 0.00 52 985.0
20260506001402 67 171 2.6 2.6 0.00 0.00 0.00 52 985.0
20260506000903 67 171 1.7 2.6 0.00 0.00 0.00 51 985.0
20260506000402 67 202 3.5 3.5 0.00 0.00 0.00 50 985.0
20260505235902 68 179 1.7 3.5 0.00 0.00 0.00 50 985.0
20260505235403 68 179 3.5 3.5 0.00 0.00 0.00 50 985.0
20260505234903 68 288 2.6 5.2 0.00 0.00 0.00 49 985.0
20260505234402 68 184 1.7 2.6 0.00 0.00 0.00 49 985.0
20260505233903 69 157 0.9 2.6 0.00 0.00 0.00 48 985.0
20260505233403 69 181 3.5 7.8 0.00 0.00 0.00 47 984.0
20260505232903 69 178 3.5 5.2 0.00 0.00 0.00 47 984.0
20260505232403 69 169 1.7 2.6 0.00 0.00 0.00 47 984.0
20260505231903 69 183 1.7 3.5 0.00 0.00 0.00 47 984.0
20260505231402 70 169 1.7 2.6 0.00 0.00 0.00 47 984.0
20260505230903 70 202 3.5 5.2 0.00 0.00 0.00 47 984.0
20260505230402 70 187 1.7 3.5 0.00 0.00 0.00 46 984.0
20260505225903 71 168 1.7 3.5 0.00 0.00 0.00 46 984.0
20260505225402 71 165 0.9 3.5 0.00 0.00 0.00 46 984.0
20260505224902 71 175 2.6 3.5 0.00 0.00 0.00 45 984.0
20260505224402 71 186 2.6 3.5 0.00 0.00 0.00 45 984.0
20260505223903 72 178 3.5 5.2 0.00 0.00 0.00 44 984.0
20260505223402 72 173 4.3 6.1 0.00 0.00 0.00 44 984.0
20260505222903 72 178 1.7 5.2 0.00 0.00 0.00 44 984.0
20260505222402 73 175 1.7 3.5 0.00 0.00 0.00 43 984.0
20260505221902 73 183 3.5 7.0 0.00 0.00 0.00 43 984.0
20260505221403 73 299 3.5 7.0 0.00 0.00 0.00 43 984.0
20260505220902 73 220 3.5 5.2 0.00 0.00 0.00 43 984.0
20260505220402 74 164 1.7 3.5 0.00 0.00 0.00 43 983.0
20260505215902 74 171 2.6 3.5 0.00 0.00 0.00 43 983.0
20260505215402 74 213 2.6 6.1 0.00 0.00 0.00 42 984.0
20260505214905 75 231 1.7 3.5 0.00 0.00 0.00 42 983.0
20260505214402 75 177 2.6 12.2 0.00 0.00 0.00 40 984.0
20260505213903 75 214 4.3 6.1 0.00 0.00 0.00 40 984.0
20260505213403 76 153 0.9 5.2 0.00 0.00 0.00 39 984.0
20260505212902 76 188 6.1 8.7 0.00 0.00 0.00 38 983.0
20260505212403 77 171 2.6 3.5 0.00 0.00 0.00 37 983.0
20260505211903 77 171 3.5 6.1 0.00 0.00 0.00 38 983.0
20260505211402 77 188 2.6 6.1 0.00 0.00 0.00 37 983.0
20260505210904 77 196 3.5 7.0 0.00 0.00 0.00 36 983.0
20260505210403 77 180 4.3 11.3 0.00 0.00 0.00 35 983.0
20260505205903 78 163 2.6 7.8 0.00 0.00 0.00 34 983.0
20260505205402 78 158 5.2 6.1 0.00 0.00 0.00 36 983.0
20260505204902 78 152 2.6 6.1 0.00 0.00 0.00 35 983.0
20260505204402 79 169 3.5 8.7 0.00 0.00 0.00 34 983.0
20260505203903 79 189 2.6 3.5 0.00 0.00 0.00 34 983.0
20260505203402 79 169 4.3 7.8 0.00 0.00 0.00 33 983.0
20260505202902 79 179 3.5 11.3 0.00 0.00 0.00 33 983.0
20260505202402 79 167 4.3 7.0 0.00 0.00 0.00 33 983.0